Regional Weather Roundup
Issued by NWS

Home | Current Version | Previous Version | Text Only | Print | Product List | Glossary Off
Versions: 1 2 3 4 5 6 7 8 9 10 11 12 13 14 15 16 17 18 19 20 21 22 23 24 25 26 27 28 29 30 31 32 33 34 35 36 37 38 39 40 41 42 43 44 45 46 47 48 49 50

907
ASUS43 KLOT 240103
RWRIL

ILLINOIS REGIONAL WEATHER ROUNDUP
NATIONAL WEATHER SERVICE CHICAGO/ROMEOVILLE IL
800 PM CDT TUE MAY 23 2017

NOTE: "FAIR" INDICATES FEW OR NO CLOUDS BELOW 12,000 FEET WITH NO
SIGNIFICANT WEATHER AND/OR OBSTRUCTIONS TO VISIBILITY.

* THESE STATIONS ARE NOT UNDER NWS QUALITY CONTROL. THEY ALSO MAY NOT
  REPORT WEATHER SUCH AS PRECIPITATION OR FOG.

ILZ001-002-007-009-015-016-024-240200-
NORTHWEST ILLINOIS

CITY           SKY/WX    TMP DP  RH WIND       PRES   REMARKS
MOLINE         PTCLDY    58  50  75 W3        29.70S
STERLING*      CLOUDY    56  54  93 CALM      29.70S
SAVANNA*       RAIN      55  50  83 NW8       29.71R
$$

ILZ003-004-008-010-011-017-018-240200-
NORTH CENTRAL ILLINOIS

CITY           SKY/WX    TMP DP  RH WIND       PRES   REMARKS
ROCKFORD       MOCLDY    57  54  89 E5        29.71S
FREEPORT*      CLEAR     55  53  90 CALM      29.73R
ROCHELLE*      MOCLDY    55  53  90 CALM      29.71S
DE KALB*       CLOUDY    55  53  92 NE3       29.71S
PERU*          CLOUDY    57  52  82 NE3       29.70F
$$

ILZ005-006-012>014-019>023-240200-
NORTHEAST ILLINOIS

CITY           SKY/WX    TMP DP  RH WIND       PRES   REMARKS
CHICAGO-OHARE  LGT RAIN  58  55  90 SE5       29.70S
CHICAGO-MIDWAY CLOUDY    58  55  90 CALM      29.71R
AURORA         LGT RAIN  57  55  93 NE3       29.71S
LANSING*       LGT RAIN  56  56  99 N3        29.70F
JOLIET*        DRIZZLE   58  56  94 CALM      29.71S
WAUKEGAN       LGT RAIN  54  53  97 CALM      29.71S FOG
DUPAGE AIRPORT LGT RAIN  55  55 100 CALM      29.70F FOG
KANKAKEE*      CLOUDY    58  55  92 CALM      29.70R
WHEELING       CLOUDY    56  56 100 E3        29.72S
MORRIS*        CLOUDY    57  54  89 CALM      29.70S
ROMEOVILLE*    CLOUDY    56  56 100 CALM      29.71S
NORTHERLY ISL    N/A     55  52  89 NE2         N/A
$$

LMZ740>746-240200-
SOUTHERN LAKE MICHIGAN

STATION/POSITION SKY/WX   TEMP    WIND        PRES    VSBY  WAVE
                          AIR SEA DIR/SP/G                  HT/PER
                          (F)     (DEG/KT/KT) (MB)    (MI)  (FT/S)
SOUTHERN BUOY              50 45  340/  2/  4 1006.6          0
WILMETTE HARBOR            52 53                N/A           0
HARRISON CRIB              56      60/ 10/ 11   N/A
BURNHAM HARBOR             55      CALM  /  5   N/A
CALUMET HARBOR             55      30/  5/  8 1005.6F
BURNS HARBOR               54     300/ 10/ 15 1006.8R
MICHIGAN CITY              55      40/  5/  5   N/A
MICHIGAN CITY 6N           55 53   50/  4/  8   N/A           1
ST. JOSEPH                 59 56   80/  4/  6 1005.8S         0
$$

ILZ025>027-034>036-040-047-049-050-058-095>099-240200-
WEST-CENTRAL ILLINOIS

CITY           SKY/WX    TMP DP  RH WIND       PRES   REMARKS
QUINCY         CLOUDY    60  50  69 NW12      29.72R
GALESBURG*     MOCLDY    58  52  81 W8        29.70S
MACOMB*        RAIN      57  51  82 NW15      29.73R
JACKSONVILLE*  MOCLDY    60  56  86 CALM      29.70S
PITTSFIELD*    PTCLDY    62  53  72 CALM      29.72S
$$

ILZ028>032-037-038-041>044-048-051>054-059>061-240200-
CENTRAL ILLINOIS

CITY           SKY/WX    TMP DP  RH WIND       PRES   REMARKS
PONTIAC        DRIZZLE   59  59  99 CALM      29.71S
BLOOMINGTON    CLOUDY    58  55  90 NW8       29.71S
DECATUR        CLOUDY    59  55  87 NW9       29.69S
PEORIA         CLOUDY    58  57  97 CALM      29.70S
LACON*         CLOUDY    57  56  94 CALM      29.69F
LINCOLN*       LGT RAIN  60  58  94 CALM      29.69F
SPRINGFIELD    CLOUDY    60  58  92 CALM      29.70S
TAYLORVILLE    CLOUDY    57  53  86 N5        29.71R
$$

ILZ033-039-045-046-055>057-062-063-240200-
EAST-CENTRAL ILLINOIS

CITY           SKY/WX    TMP DP  RH WIND       PRES   REMARKS
CHAMPAIGN      CLOUDY    60  54  80 NW14      29.68S
RANTOUL*       CLOUDY    62  57  83 NW9       29.69S
MATTOON        CLOUDY    62  56  80 NW14      29.68R
$$

ILZ079-100>102-240200-
SOUTHWEST ILLINOIS

CITY           SKY/WX    TMP DP  RH WIND       PRES   REMARKS
ALTON          MOCLDY    57  54  88 NW6       29.71F
BELLEVILLE     CLOUDY    59  55  87 N7        29.71S
CAHOKIA*       CLOUDY    61  54  77 N6        29.71S
SPARTA*        MOCLDY    63  57  81 NW7       29.71R
$$

ILZ064>066-069>071-074>076-080>082-084>086-088>090-092>094-240200-
SOUTH-CENTRAL ILLINOIS

CITY           SKY/WX    TMP DP  RH WIND       PRES   REMARKS
CARBONDALE     CLOUDY    65  59  81 NW8       29.67F
CAIRO*         CLOUDY    68  57  68 W5        29.66S
EFFINGHAM*     CLOUDY    64  60  88 W7        29.69R
MARION         CLOUDY    66  61  82 NW3       29.67F
MT. VERNON       N/A     66  56  70 CALM      29.67F
CENTRALIA*     CLOUDY    65  57  77 NW9       29.67F
SALEM*         LGT RAIN  65  58  77 NW3       29.68S
$$

ILZ067-068-072-073-078-083-087-091-240200-
SOUTHEAST ILLINOIS

CITY           SKY/WX    TMP DP  RH WIND       PRES   REMARKS
LAWRENCEVILLE  CLOUDY    71  49  45 SW3       29.65F
FLORA*         CLOUDY    67  58  73 NW8       29.67S
FAIRFIELD*     CLOUDY    66  56  69 CALM      29.66S
HARRISBURG*    CLOUDY    67  58  72 NW13      29.66S
ROBINSON*      CLOUDY    68  54  60 CALM      29.66S
CARMI*         MOCLDY    68  50  52 W6        29.64F
$$

ABBREVIATIONS USED IN REMARKS
   TC - TEMPERATURE IN CELSIUS
  WCI - WIND CHILL INDEX
   HX - HEAT INDEX
  VSB - VISIBILITY
$$





USA.gov is the U.S. government's official web portal to all federal, state and local government web resources and services.